This is the latest recevied weather packets stored in our database for station/object SR9NLI. If no packets are shown the sender has not sent any weather packets the latest 1 day(s).
| Time | Temp. | Humidity | Pressure | Rain* | Wind** | Luminosity | Snow |
|---|---|---|---|---|---|---|---|
| 1777964531 | 20.56° C | 100% | 952.6 hPa | - | 1.34 m/s, 199° | - | - |
| 1777964469 | 20.56° C | 100% | 952.6 hPa | - | 1.34 m/s, 203° | - | - |
| 1777964346 | 20.56° C | 100% | 952.6 hPa | - | 1.34 m/s, 184° | - | - |
| 1777964223 | 20° C | 100% | 952.6 hPa | - | 1.79 m/s, 181° | - | - |
| 1777964163 | 20° C | 100% | 952.5 hPa | - | 2.24 m/s, 179° | - | - |
| 1777964100 | 20° C | 100% | 952.5 hPa | - | 2.68 m/s, 174° | - | - |
| 1777963976 | 20° C | 100% | 952.7 hPa | - | 2.24 m/s, 173° | - | - |
| 1777963853 | 20° C | 100% | 952.7 hPa | - | 1.34 m/s, 187° | - | - |
| 1777963793 | 20° C | 100% | 952.8 hPa | - | 1.34 m/s, 199° | - | - |
| 1777963731 | 20° C | 100% | 952.8 hPa | - | 1.34 m/s, 192° | - | - |
| 1777963607 | 20° C | 100% | 952.7 hPa | - | 1.79 m/s, 188° | - | - |
| 1777963485 | 19.44° C | 100% | 952.6 hPa | - | 2.68 m/s, 183° | - | - |
| 1777963424 | 19.44° C | 100% | 952.8 hPa | - | 2.68 m/s, 180° | - | - |
| 1777963362 | 19.44° C | 100% | 952.6 hPa | - | 2.24 m/s, 181° | - | - |
| 1777963238 | 20° C | 100% | 952.8 hPa | - | 1.79 m/s, 176° | - | - |
| 1777963115 | 20° C | 100% | 952.8 hPa | - | 1.34 m/s, 169° | - | - |
| 1777963054 | 20° C | 100% | 952.8 hPa | - | 1.34 m/s, 176° | - | - |
| 1777962992 | 20° C | 100% | 952.8 hPa | - | 1.34 m/s, 163° | - | - |
| 1777962869 | 19.44° C | 100% | 952.9 hPa | - | 0.89 m/s, 160° | - | - |
| 1777962746 | 19.44° C | 100% | 952.8 hPa | - | 1.34 m/s, 0° | - | - |
| 1777962685 | 18.89° C | 100% | 952.8 hPa | - | 1.79 m/s, 277° | - | - |
| 1777962622 | 18.89° C | 100% | 952.8 hPa | - | 1.79 m/s, 298° | - | - |
| 1777962499 | 17.78° C | 100% | 952.9 hPa | - | 2.24 m/s, 299° | - | - |
| 1777962375 | 17.78° C | 100% | 952.8 hPa | - | 1.79 m/s, 331° | - | - |
| 1777962315 | 17.78° C | 100% | 952.8 hPa | - | 1.79 m/s, 354° | - | - |
* Rain since midnight (hover to see other rain measurements)
** Current wind speed in m/s (hover to see current wind gust speed)